Volver al catálogo

FENGYUN 1C DEB

ActivoSSO
NORAD 38829·DEBRIS·🇨🇳 China

Lanzado May 10, 1999 desde Taiyuan Satellite Launch Center

Loading…

Próximos Pases (próximas 24 horas)

TLE

ActualizadoSource: Space-Track

Época: Sep 14, 2026, 06:39 UTC

1 38829U 99025EVV 26257.27766229  .00000519  00000-0  31802-3 0  9990
2 38829  98.7389 270.2768 0039998 331.7987  28.1018 14.09708479680142

Sigue FENGYUN 1C DEB en tiempo real con AllMySat

Download on the App Store